Flag for Germany Weather past 2 weeks in Kleve, North Rhine-Westphalia, Germany

Now
50 °F

Fog.


Feels Like: 48 °F
Forecast: 47 / 63 °F
Wind: 6 mph from Southwest

Location: Niederrhein

Current Time: Aug 23, 2014 at 7:42:47 AM

Latest Report: Aug 23, 2014 at 6:50 AM


Visibility: 3 mi

Pressure: 29.89 "Hg

Humidity: 100%

Dew point: 50 °F

Location of KleveLocation

Historic Weather in Kleve — Graph

°F

Kleve temperature yesterday

Maximum temperature yesterday: 64 °F (at 11:50 AM)
Minimum temperature yesterday: 52 °F (at 4:50 AM)
Average temperature yesterday: 58 °F

Past Weeks' High & Low Weather Summary

 TemperatureHumidityPressure
High77 °F (Aug 8, 12:20 PM)100% (Aug 8, 6:20 AM)30.09 "Hg (Aug 8, 6:20 AM)
Low45 °F (Aug 21, 6:50 AM)41% (Aug 13, 4:50 PM)29.53 "Hg (Aug 10, 6:20 PM)
Average61 °F78%29.85 "Hg
* Reported Aug 8 6:20 AM — Aug 23 6:50 AM, Kleve, Weather by CustomWeather, © 2014

Note: Actual official high and low records may vary slightly from our data, if they occured in-between our weather recording intervals... More about our weather records

Advertising

Kleve weather history for previous 24 hours

 ConditionsComfort  
Time TempWeatherWind HumidityBarometerVisibility
6:50 AM
Aug 23
50 °FFog.6 mph100%29.89 "Hg3 mi
6:20 AM50 °FFog.3 mph100%29.89 "Hg3 mi
5:50 AM50 °FFog.5 mph100%29.89 "Hg3 mi
5:20 AM50 °FFog.2 mph100%29.89 "Hg3 mi
4:50 AM50 °FFog.2 mph100%29.89 "Hg3 mi
11:50 PM
Aug 22
54 °FClear.7 mph100%29.89 "Hg6 mi
11:20 PM55 °FPassing clouds.8 mph94%29.89 "Hg6 mi
10:50 PM57 °FClear.1 mph94%29.89 "Hg6 mi
10:20 PM55 °FPartly sunny.5 mph100%29.89 "Hg6 mi
9:50 PM57 °FPartly sunny.2 mph94%29.89 "Hg6 mi
9:20 PM57 °FSprinkles. Partly sunny.2 mph94%29.86 "Hg6 mi
8:50 PM57 °FSprinkles. Partly sunny.6 mph94%29.86 "HgN/A
8:20 PM57 °FSprinkles. Broken clouds.8 mph94%29.86 "HgN/A
7:50 PM59 °FScattered showers. Scattered clouds.6 mph88%29.86 "HgN/A
7:20 PM59 °FScattered showers. Scattered clouds.7 mph88%29.86 "HgN/A
6:50 PM57 °FSprinkles. Scattered clouds.8 mph94%29.86 "HgN/A
6:20 PM57 °FLight rain. Scattered clouds.7 mph94%29.86 "HgN/A
5:50 PM57 °FLight rain. Scattered clouds.9 mph94%29.86 "HgN/A
5:20 PM57 °FLight rain. Partly sunny.12 mph88%29.86 "HgN/A
4:50 PM59 °FLight rain. Scattered clouds.16 mph77%29.86 "HgN/A
4:20 PM61 °FSunny.18 mph68%29.86 "Hg10 mi
3:50 PM61 °FPassing clouds.12 mph68%29.86 "HgN/A
3:20 PM61 °FScattered clouds.16 mph68%29.86 "HgN/A
2:50 PM63 °FScattered clouds.16 mph59%29.86 "HgN/A
2:20 PM64 °FScattered clouds.14 mph56%29.86 "HgN/A
1:50 PM63 °FScattered clouds.16 mph56%29.86 "HgN/A
1:20 PM63 °FScattered clouds.17 mph56%29.86 "HgN/A
12:50 PM64 °FScattered clouds.20 mph56%29.86 "HgN/A
12:20 PM64 °FPassing clouds.15 mph60%29.86 "HgN/A
11:50 AM64 °FPassing clouds.12 mph64%29.86 "HgN/A
11:20 AM61 °FPassing clouds.12 mph68%29.86 "HgN/A
10:50 AM61 °FPassing clouds.13 mph68%29.86 "HgN/A
10:20 AM59 °FSunny.10 mph72%29.86 "Hg10 mi
9:50 AM57 °FPassing clouds.7 mph77%29.89 "HgN/A
9:20 AM57 °FPassing clouds.7 mph82%29.89 "HgN/A
8:50 AM54 °FSunny.7 mph88%29.89 "Hg10 mi
8:20 AM54 °FClear.6 mph88%29.89 "Hg10 mi
7:20 AM54 °FPassing clouds.7 mph82%29.89 "HgN/A
Weather by CustomWeather, © 2014

See weather overviewHow to use our weather pages